SCP
0 0 0 0 0 0 0 0 0 0 0 0 0 0 0 0 0 0 0 0 0 0 0 0 0 0 0 0 0 0 0 0 0 0 0 0 1 1 1 1 2 2 2 1
0 0 0 0 0 0 0 0 0 0 0 0 0 0 0 0 0 0 0 0 0 0 0 0 0 0 0 0 0 0 0 0 0 0 0 0 0 1 1 1 1 2 2 2
0 0 0 0 0 0 0 0 0 0 0 0 0 0 0 0 0 0 0 0 0 0 0 0 0 0 0 0 0 0 0 0 0 0 0 0 0 0 0 1 1 1 2 2
0 0 0 0 0 0 0 0 0 0 0 0 0 0 0 0 0 0 0 0 0 0 0 0 0 0 0 0 0 0 0 0 0 0 0 0 0 0 0 0 0 1 1 1
0 0 0 0 0 0 0 0 0 0 0 0 0 0 0 0 0 0 0 0 0 0 0 0 0 0 0 0 0 0 0 0 0 0 0 0 0 0 0 0 0 0 1 1
0 0 0 0 0 0 0 0 0 0 0 0 0 0 0 0 0 0 0 0 0 0 0 0 0 0 0 0 0 0 0 0 0 0 0 0 0 0 0 0 0 0 0 1
0 0 0 0 0 0 0 0 0 0 0 0 0 0 0 0 0 0 0 0 0 0 0 0 0 0 0 0 0 0 0 0 0 0 0 0 0 0 0 0 0 0 0 0
0 0 0 0 0 0 0 0 0 0 0 0 0 0 0 0 0 0 0 0 0 0 0 0 0 0 0 0 0 0 0 0 0 0 0 0 0 0 0 0 0 0 0 0
0 0 0 0 0 0 0 0 0 0 0 0 0 0 0 0 0 0 0 0 0 0 0 0 0 0 0 0 0 0 0 0 0 0 0 0 0 0 0 0 0 0 0 0
0 0 0 0 0 0 0 0 0 0 0 0 0 0 0 0 0 0 0 0 0 0 0 0 0 0 0 0 0 0 0 0 0 0 0 0 0 0 0 0 0 0 0 0
0 0 0 0 0 0 0 0 0 0 0 0 0 0 0 0 0 0 0 0 0 0 0 0 0 0 0 0 0 0 0 0 0 0 0 0 0 0 0 0 0 0 0 0
0 0 0 0 0 0 0 0 0 0 0 0 0 0 0 0 0 0 0 0 0 0 0 0 0 0 0 0 0 0 0 0 0 0 0 0 0 0 0 0 0 0 0 0
0 0 0 0 0 0 0 0 0 0 0 0 0 0 0 0 0 0 0 0 0 0 0 0 0 0 0 0 0 0 0 0 0 0 0 0 0 0 0 0 0 0 0 0
0 0 0 0 0 0 0 0 0 0 0 0 0 0 0 0 0 0 0 0 0 0 0 0 0 0 0 0 0 0 0 0 0 0 0 0 0 0 0 0 0 0 0 0
0 0 0 0 0 0 0 0 0 0 0 0 0 0 0 0 0 0 0 0 0 0 0 0 0 0 0 0 0 0 0 0 0 0 0 0 0 0 0 0 0 0 0 0
0 0 0 0 0 0 0 0 0 0 0 0 0 0 0 0 0 0 0 0 0 0 0 0 0 0 0 0 0 0 0 0 0 0 0 0 0 0 0 0 0 0 0 0
0 0 0 0 0 0 0 0 0 0 0 0 0 0 0 0 0 0 0 0 0 0 0 0 0 0 0 0 0 0 0 0 0 0 0 0 0 0 0 0 0 0 0 0
0 0 0 0 0 0 0 0 0 0 0 0 0 0 0 0 0 0 0 0 0 0 0 0 0 0 0 0 0 0 0 0 0 0 0 0 0 0 0 0 0 0 0 0
0 0 0 0 0 0 0 0 0 0 0 0 0 0 0 0 0 0 0 0 0 0 0 0 0 0 0 0 0 0 0 0 0 0 0 0 0 0 0 0 0 0 0 0
0 0 0 0 0 0 0 0 0 0 0 0 0 0 0 0 0 0 0 0 0 0 0 0 0 0 0 0 0 0 0 0 0 0 0 0 0 0 0 0 0 0 0 0
0 0 0 0 0 0 0 0 0 0 0 0 0 0 0 0 0 0 0 0 0 0 0 0 0 0 0 0 0 0 0 0 0 0 0 0 0 0 0 0 0 0 0 0
0 0 0 0 0 0 0 0 0 0 0 0 0 0 0 0 0 0 0 0 0 0 0 0 0 0 0 0 0 0 0 0 0 0 0 0 0 0 0 0 0 0 0 0
0 0 0 0 0 0 0 0 0 0 0 0 0 0 0 0 0 0 0 0 0 0 0 0 0 0 0 0 0 0 0 0 0 0 0 0 0 0 0 0 0 0 0 0
0 0 0 0 0 0 0 0 0 0 0 0 0 0 0 0 0 0 0 0 0 0 0 0 0 0 0 0 0 0 0 0 0 0 0 0 0 0 0 0 0 0 0 0
0 0 0 0 0 0 0 0 0 0 0 0 0 0 0 0 0 0 0 0 0 0 0 0 0 0 0 0 0 0 0 0 0 0 0 0 0 0 0 0 0 0 0 0
0 0 0 0 0 0 0 0 0 0 0 0 0 0 0 0 0 0 0 0 0 0 0 0 0 0 0 0 0 0 0 0 0 0 0 0 0 0 0 0 0 0 0 0
0 0 0 0 0 0 0 0 0 0 0 0 0 0 0 0 0 0 0 0 0 0 0 0 0 0 0 0 0 0 0 0 0 0 0 0 0 0 0 0 0 0 0 0
Wind_Speed
4 4 3 5 6 6 8 8 8 8 7 9 5 5 5 4 3 3 3 3 3 3 3 3 3 2 2 2 2 1 1 1 2 2 2 2 2 2 2 2 3 3 2 3
3 3 3 5 7 7 8 7 7 6 9 6 4 3 3 4 3 4 4 5 4 4 3 3 3 2 2 2 2 1 2 2 2 2 2 2 2 2 2 2 2 2 3 3
3 3 2 7 8 8 6 6 7 9 8 3 3 4 5 5 4 5 5 5 4 4 4 4 3 3 3 2 2 2 2 2 2 2 2 2 2 2 2 2 2 3 3 3
0 2 6 7 2 5 5 5 6 5 5 4 6 5 5 4 3 4 4 4 5 4 3 3 3 2 2 2 1 2 2 2 2 2 2 2 2 2 3 2 3 3 3 3
2 2 8 7 2 3 4 6 5 6 5 4 3 3 4 2 2 3 4 5 4 4 3 3 2 2 1 1 1 1 2 2 2 2 2 2 2 3 2 2 3 3 3 3
3 3 7 6 2 0 1 5 3 4 4 3 1 2 5 2 3 4 4 4 3 3 2 2 2 1 1 1 1 2 2 2 2 2 2 3 3 3 2 2 3 3 3 3
4 5 9 5 1 2 2 6 2 3 4 3 4 5 4 4 4 3 3 4 3 2 2 2 2 1 1 1 2 2 1 1 1 2 2 2 2 2 2 2 2 2 3 3
4 4 9 2 3 5 5 2 2 3 3 4 5 4 4 4 3 3 3 3 3 2 2 2 1 1 1 2 2 1 1 1 1 2 2 2 2 2 2 2 2 2 3 3
8 8 4 3 4 4 2 3 3 3 4 3 4 4 4 4 3 3 3 3 2 2 2 3 2 1 2 2 1 1 1 1 2 2 1 1 1 2 2 1 2 2 2 3
4 7 5 4 4 3 3 3 3 4 4 3 4 4 4 4 3 3 3 3 2 2 2 3 2 2 2 2 1 0 1 1 1 1 2 2 1 1 1 2 2 2 2 3
5 6 4 4 4 4 3 3 3 4 3 4 4 4 4 3 3 3 3 2 2 2 3 3 2 2 2 1 1 1 1 1 1 1 1 2 2 2 2 2 2 3 2 2
8 7 5 6 4 3 3 4 4 4 4 3 3 4 3 3 3 3 3 2 2 2 2 3 2 2 2 2 1 1 1 1 1 1 1 1 2 3 4 4 6 6 5 4
7 4 4 5 3 3 3 4 3 4 5 5 4 3 3 3 3 2 3 3 3 3 3 2 2 2 2 2 1 1 1 2 1 1 1 1 2 2 3 5 6 6 6 6
4 2 3 4 4 3 3 3 2 3 4 4 3 2 2 2 3 3 3 3 3 3 2 2 2 3 3 2 1 1 2 2 2 1 1 2 2 2 2 3 3 4 5 6
5 5 5 4 2 2 1 1 2 3 3 3 2 2 3 3 3 4 3 3 2 2 2 2 2 3 2 1 1 1 1 1 1 1 1 1 2 2 2 2 3 3 3 4
3 2 2 3 4 3 2 2 3 4 4 3 3 3 3 3 3 3 3 2 2 3 3 3 3 3 2 2 2 1 2 3 2 1 1 1 1 1 2 2 2 3 3 3
2 3 3 4 4 4 4 5 5 5 4 4 4 3 2 2 2 3 3 2 3 4 4 3 3 3 2 2 2 1 1 2 3 2 1 1 1 1 2 2 2 3 3 4
4 4 4 5 5 5 5 5 5 5 4 4 3 2 3 3 3 4 3 2 2 3 3 3 3 2 2 2 2 1 1 1 1 1 1 1 2 2 2 2 2 3 3 4
2 3 3 4 4 4 4 5 4 4 4 3 3 3 4 4 3 3 2 2 2 3 3 3 3 1 2 3 2 1 1 2 2 2 2 2 2 2 2 2 2 2 3 3
2 2 2 3 2 2 3 4 3 3 3 2 2 3 3 3 2 2 2 3 3 3 3 3 2 2 2 3 2 1 2 2 2 2 2 2 2 2 2 2 2 2 2 2
3 3 2 3 3 3 3 3 2 3 2 2 3 4 4 3 3 2 2 3 3 2 3 3 2 2 2 2 2 1 2 2 2 2 2 2 2 2 3 2 2 2 2 2
2 2 3 3 3 3 3 2 2 2 2 2 2 2 2 3 2 3 3 3 3 3 2 2 2 3 3 2 1 1 2 2 2 2 2 2 2 3 3 3 3 3 2 2
2 2 3 3 3 3 3 2 2 2 2 3 3 3 3 3 2 2 3 2 2 4 2 2 3 4 3 0 1 1 2 2 2 2 2 2 3 3 3 3 3 2 2 2
2 2 3 2 2 2 3 3 2 2 2 3 3 3 2 2 2 2 2 3 4 4 2 3 4 4 2 0 1 1 2 2 2 2 2 2 2 2 2 2 2 2 2 3
2 2 2 2 2 2 3 3 2 2 2 2 2 2 2 2 2 2 2 2 3 2 2 3 4 3 1 1 1 2 2 2 2 2 2 2 2 2 2 2 2 2 2 2
2 2 2 2 2 2 2 1 2 2 2 2 2 2 1 1 1 1 1 1 2 2 2 2 2 2 1 1 1 2 2 2 2 2 2 2 2 2 2 2 3 2 2 2
1 1 1 2 2 2 2 2 2 2 2 2 2 2 1 1 1 1 1 1 1 1 1 1 1 1 1 1 1 2 2 2 2 2 2 2 2 2 2 3 2 2 2 2
Wind_Direction
256 270 232 234 233 215 210 212 216 241 243 263 263 265 277 284 290 305 307 302 292 288 288 293 291 276 259 268 269 259 236 242 256 273 278 275 276 278 284 284 281 279 280 282
282 283 262 261 249 227 231 232 239 256 266 261 264 271 285 286 284 290 292 292 292 291 290 282 278 271 269 275 270 248 230 244 261 270 281 276 269 273 285 292 292 289 287 283
264 308 340 270 235 206 214 218 206 229 246 267 284 273 271 279 278 278 285 292 291 289 286 283 276 262 251 257 266 240 234 247 256 258 273 274 275 276 277 276 277 279 278 277
207 29 242 248 219 196 211 243 227 239 258 253 257 272 273 260 255 279 295 298 299 297 297 294 291 285 268 256 249 247 242 246 255 263 268 277 276 270 271 269 268 271 274 272
155 231 275 288 243 175 195 263 227 232 257 273 290 305 285 241 253 269 281 284 282 281 281 289 293 290 282 276 269 260 255 258 262 265 268 269 269 271 270 271 275 273 276 273
155 199 244 256 254 246 107 276 237 218 245 266 325 297 273 286 302 301 303 299 297 304 303 292 293 299 289 285 283 269 270 272 272 269 265 266 266 272 273 270 273 281 285 279
195 230 261 255 241 103 175 258 248 226 237 230 224 234 268 296 296 296 301 308 311 311 296 283 283 285 273 280 276 283 294 291 293 287 274 267 268 269 273 278 286 285 285 286
176 212 254 219 142 185 227 268 266 256 246 238 251 272 286 287 290 303 311 319 322 319 309 303 284 226 262 273 283 306 324 315 307 298 288 291 286 288 280 276 288 288 288 296
198 220 253 209 208 239 243 257 266 264 264 246 256 267 280 283 286 293 297 304 312 310 308 308 303 253 252 282 294 314 329 315 312 317 316 313 296 294 298 288 283 290 293 296
250 262 259 253 259 270 254 248 264 266 266 248 250 261 271 278 287 293 296 299 312 316 305 302 308 309 279 293 308 288 290 302 309 313 321 324 316 303 298 291 286 290 297 301
253 270 291 267 236 242 257 257 271 284 270 247 248 260 255 262 271 278 293 301 299 288 290 295 306 307 303 301 318 312 297 297 307 310 306 316 319 308 299 279 288 296 286 286
235 232 217 251 245 219 230 251 256 271 286 276 247 253 257 260 262 268 281 288 293 292 290 294 301 303 306 306 297 280 294 304 305 305 313 322 320 324 323 317 323 321 317 311
236 247 235 251 254 230 236 249 254 256 261 272 265 245 244 258 261 265 275 276 273 275 282 285 288 289 293 292 278 254 265 287 296 304 312 313 319 321 323 331 334 334 332 328
237 234 256 247 245 254 254 260 267 273 269 264 261 258 249 260 265 263 263 268 272 272 273 273 276 281 287 286 273 264 263 275 289 284 288 293 299 305 307 318 329 332 334 335
250 232 234 249 257 267 270 271 286 284 285 281 263 256 252 254 260 266 273 280 282 273 270 267 272 280 287 274 261 264 268 275 279 276 278 284 296 305 310 312 314 318 326 333
260 246 230 235 249 261 261 248 256 268 273 270 268 266 259 255 262 270 270 250 237 258 266 265 267 273 273 259 256 263 265 280 293 287 281 289 295 304 312 312 313 315 318 323
218 244 239 244 248 251 244 240 244 255 262 265 265 266 266 267 271 275 277 267 254 256 258 251 259 271 266 248 237 255 269 276 291 299 284 282 286 288 294 302 307 308 306 315
230 240 240 238 244 252 259 256 252 253 250 255 262 252 248 245 253 266 278 289 295 288 271 259 261 265 261 258 241 240 255 265 270 271 280 283 285 283 285 294 301 304 311 318
261 260 266 261 250 245 254 258 257 254 256 248 243 247 250 251 252 259 264 261 257 269 272 268 282 281 260 259 260 226 236 254 265 270 274 284 295 295 289 289 292 298 306 316
290 287 285 289 286 262 262 267 265 262 254 235 238 251 260 263 256 253 252 252 246 249 260 267 269 260 256 252 254 223 228 238 245 254 258 261 269 278 280 282 286 290 298 304
293 295 298 298 300 295 283 277 269 269 267 239 231 242 254 266 259 241 239 266 269 263 259 267 277 266 257 255 251 227 229 235 241 245 252 258 264 268 272 276 281 286 290 293
287 290 295 298 303 307 307 298 282 275 273 260 252 248 252 265 267 262 243 242 254 274 282 257 269 267 275 269 226 229 235 238 244 247 250 255 258 263 268 272 275 281 285 287
281 283 290 294 291 295 307 306 294 279 267 258 250 244 243 248 243 244 269 265 263 273 282 258 275 281 289 254 226 235 240 244 248 251 254 257 258 259 263 267 270 275 280 284
286 292 294 299 305 308 307 306 302 289 277 271 261 250 243 257 268 248 256 274 286 289 283 278 284 286 299 292 257 248 247 250 254 257 261 262 259 259 261 264 269 272 275 280
282 285 292 302 300 288 288 302 310 303 297 286 283 274 257 239 244 267 278 267 275 293 294 284 292 301 306 280 267 262 258 256 257 257 256 266 268 269 267 267 268 271 274 276
277 280 275 264 260 270 278 282 285 288 291 293 295 287 288 286 274 277 279 274 272 300 310 294 289 292 288 280 276 273 273 281 288 284 274 274 273 273 274 277 279 277 279 281
289 287 292 294 285 271 263 259 263 270 271 271 283 290 297 301 298 295 294 296 297 297 296 297 294 280 280 283 284 282 282 281 279 279 280 279 277 275 276 278 281 282 284 284